DW5684 Weather Reports


time (UTC)temp
C
wind
direction
speed
KPH
gust
KPH
rain 1hr
cm
rain 24hr
cm
rain mn
cm
humidity
%
barometer
mb
20260505071311 17 214 11.3 22.5 0.05 0.05 0.05 87 1005.9
20260505070826 18 219 9.7 17.7 0.03 0.03 0.03 84 1006.0
20260505070303 18 230 6.4 17.7 0.00 0.00 0.00 80 1006.0
20260505065818 19 216 6.4 17.7 0.00 0.00 0.00 78 1005.8
20260505065313 19 214 9.7 17.7 0.00 0.00 0.00 75 1006.1
20260505064809 19 139 4.8 12.9 0.00 0.00 0.00 74 1006.1
20260505064323 19 166 6.4 12.9 0.00 0.00 0.00 74 1006.1
20260505063837 19 179 3.2 4.8 0.00 0.00 0.00 74 1005.7
20260505063310 19 216 1.6 4.8 0.00 0.00 0.00 75 1005.5
20260505062805 18 207 0.0 4.8 0.00 0.00 0.00 75 1005.3
20260505062300 18 152 1.6 4.8 0.00 0.00 0.00 76 1005.3
20260505061759 18 157 0.0 4.8 0.00 0.00 0.00 76 1005.3
20260505061333 18 169 0.0 4.8 0.00 0.00 0.00 76 1005.3
20260505060806 18 242 1.6 4.8 0.00 0.00 0.00 76 1005.3
20260505060300 18 176 1.6 4.8 0.00 0.00 0.00 76 1005.3
20260505055833 18 192 0.0 3.2 0.00 0.00 0.00 77 1005.3
20260505055307 18 177 0.0 3.2 0.00 0.00 0.00 77 1005.2
20260505054802 18 162 1.6 3.2 0.00 0.00 0.00 76 1005.2
20260505054336 18 193 0.0 4.8 0.00 0.00 0.00 77 1005.3
20260505053810 18 162 0.0 3.2 0.00 0.00 0.00 77 1005.5
20260505053309 18 195 0.0 3.2 0.00 0.00 0.00 77 1005.6
20260505052804 18 166 0.0 3.2 0.00 0.00 0.00 77 1005.8
20260505052317 18 217 0.0 3.2 0.00 0.00 0.00 77 1005.9
20260505051812 18 170 0.0 3.2 0.00 0.00 0.00 77 1005.8
20260505051305 18 198 0.0 3.2 0.00 0.00 0.00 77 1005.5
20260505050818 18 135 0.0 8.0 0.00 0.00 0.00 77 1005.3
20260505050333 18 174 1.6 11.3 0.00 0.00 0.00 76 1005.1
20260505041302 18 181 3.2 8.0 0.00 0.00 0.00 75 1005.5
20260505040801 19 178 1.6 9.7 0.00 0.00 0.00 74 1005.6
20260505040316 19 171 4.8 11.3 0.00 0.00 0.00 73 1005.6
20260505035811 19 181 1.6 11.3 0.00 0.00 0.00 73 1005.6
20260505035305 19 158 3.2 9.7 0.00 0.00 0.00 72 1005.6
20260505034759 20 188 1.6 9.7 0.00 0.00 0.00 72 1005.6
20260505034314 20 155 3.2 9.7 0.00 0.00 0.00 72 1005.7
20260505033809 20 190 1.6 8.0 0.00 0.00 0.00 71 1005.8
20260505033304 20 172 1.6 9.7 0.00 0.00 0.00 71 1005.8
20260505032802 20 175 3.2 9.7 0.00 0.00 0.00 71 1006.0
20260505032316 20 262 3.2 9.7 0.00 0.00 0.00 71 1005.8
20260505031810 20 148 1.6 9.7 0.00 0.00 0.00 70 1005.8
20260505031306 20 154 3.2 9.7 0.00 0.00 0.00 70 1006.0
20260505030802 20 188 3.2 11.3 0.00 0.00 0.00 69 1005.8
20260505030338 20 148 3.2 12.9 0.00 0.00 0.00 69 1005.8
20260505025811 20 200 4.8 12.9 0.00 0.00 0.00 68 1005.8
20260505025307 21 207 3.2 9.7 0.00 0.00 0.00 68 1006.0
20260505024802 21 153 1.6 9.7 0.00 0.00 0.00 67 1006.0
20260505024301 21 221 3.2 9.7 0.00 0.00 0.00 68 1005.8
20260505023816 21 208 4.8 16.1 0.00 0.00 0.00 68 1005.7
20260505023311 21 233 4.8 16.1 0.00 0.00 0.00 69 1005.7
20260505022806 21 208 3.2 6.4 0.00 0.00 0.00 69 1005.8
20260505022301 21 222 1.6 8.0 0.00 0.00 0.00 68 1005.8
20260505021815 21 181 3.2 8.0 0.00 0.00 0.00 68 1005.8
20260505021330 21 218 0.0 6.4 0.00 0.00 0.00 68 1005.8
20260505020825 21 212 1.6 6.4 0.00 0.00 0.00 68 1005.8
20260505020318 21 200 1.6 11.3 0.00 0.00 0.00 68 1005.7
20260505015833 21 217 4.8 11.3 0.00 0.00 0.00 69 1005.7
20260505015312 21 221 1.6 6.4 0.00 0.00 0.00 69 1005.6
20260505014806 21 212 0.0 4.8 0.00 0.00 0.00 69 1005.7
20260505014300 21 205 0.0 4.8 0.00 0.00 0.00 68 1005.7
20260505013815 21 225 0.0 4.8 0.00 0.00 0.00 66 1005.5
20260505013310 21 227 1.6 8.0 0.00 0.00 0.00 66 1005.4
20260505012805 22 215 0.0 8.0 0.00 0.00 0.00 65 1005.4
20260505012300 22 141 0.0 0.0 0.00 0.00 0.00 65 1005.3
20260505011818 22 217 0.0 6.4 0.00 0.00 0.00 65 1005.2
20260505011313 22 207 0.0 6.4 0.00 0.00 0.00 64 1005.2
20260505010808 22 223 1.6 6.4 0.00 0.00 0.00 63 1005.1
20260505010302 22 166 1.6 6.4 0.00 0.00 0.00 63 1004.9
20260505005817 22 237 1.6 8.0 0.00 0.00 0.00 62 1005.2
20260505005313 22 217 1.6 8.0 0.00 0.00 0.00 63 1005.0
20260505004827 22 230 3.2 8.0 0.00 0.00 0.00 63 1004.9
20260505004259 22 191 0.0 4.8 0.00 0.00 0.00 63 1004.8
20260505003813 23 230 1.6 4.8 0.00 0.00 0.00 62 1004.8
20260505003312 23 220 0.0 8.0 0.00 0.00 0.00 62 1004.7
20260505002807 23 225 1.6 8.0 0.00 0.00 0.00 62 1004.6
20260505002303 23 220 0.0 4.8 0.00 0.00 0.00 61 1004.7
20260505001817 23 227 0.0 4.8 0.00 0.00 0.00 61 1004.7
20260505001310 23 186 0.0 6.4 0.00 0.00 0.00 61 1004.6
20260505000805 23 210 1.6 6.4 0.00 0.00 0.00 60 1004.5
20260505000300 24 217 0.0 8.0 0.00 0.00 0.00 59 1004.5
20260504235814 24 175 4.8 14.5 0.00 0.00 0.00 57 1004.4
20260504235313 24 214 4.8 14.5 0.00 0.00 0.00 57 1004.5
20260504234808 24 209 0.0 12.9 0.00 0.00 0.00 57 1004.5
20260504234301 25 219 3.2 12.9 0.00 0.00 0.00 55 1004.5
20260504233815 25 171 3.2 12.9 0.00 0.00 0.00 55 1004.6
20260504233311 25 224 3.2 11.3 0.00 0.00 0.00 55 1004.6
20260504232806 25 235 8.0 12.9 0.00 0.00 0.00 54 1004.6
20260504232340 25 212 4.8 17.7 0.00 0.00 0.00 54 1004.6
20260504231834 25 214 4.8 17.7 0.00 0.00 0.00 54 1004.5
20260504231308 26 209 6.4 12.9 0.00 0.00 0.00 54 1004.5
20260504230806 26 207 3.2 12.9 0.00 0.00 0.00 54 1004.5
20260504230301 26 230 6.4 14.5 0.00 0.00 0.00 54 1004.4
20260504225836 26 236 6.4 14.5 0.00 0.00 0.00 53 1004.4
20260504225310 26 212 6.4 14.5 0.00 0.00 0.00 52 1004.5
20260504224805 26 221 3.2 9.7 0.00 0.00 0.00 55 1004.5
20260504224319 26 278 1.6 12.9 0.00 0.00 0.00 53 1004.5
20260504223833 26 229 3.2 14.5 0.00 0.00 0.00 52 1004.5
20260504223307 26 239 9.7 17.7 0.00 0.00 0.00 51 1004.4
20260504222802 26 223 4.8 17.7 0.00 0.00 0.00 53 1004.4
20260504222301 26 167 4.8 11.3 0.00 0.00 0.00 52 1004.4
20260504221815 27 213 4.8 17.7 0.00 0.00 0.00 55 1004.4
20260504221309 27 228 6.4 20.9 0.00 0.00 0.00 50 1004.4
20260504220803 27 186 9.7 20.9 0.00 0.00 0.00 50 1004.4
20260504220318 27 208 6.4 14.5 0.00 0.00 0.00 52 1004.5
20260504215832 27 191 6.4 14.5 0.00 0.00 0.00 51 1004.4
20260504215305 27 218 3.2 12.9 0.00 0.00 0.00 51 1004.5
20260504214800 27 221 3.2 22.5 0.00 0.00 0.00 50 1004.5
20260504214259 27 217 8.0 22.5 0.00 0.00 0.00 50 1004.6
20260504213814 27 224 6.4 14.5 0.00 0.00 0.00 52 1004.6
20260504213309 26 205 6.4 17.7 0.00 0.00 0.00 52 1004.5
20260504212804 26 208 4.8 17.7 0.00 0.00 0.00 52 1004.5
20260504212318 26 291 4.8 19.3 0.00 0.00 0.00 52 1004.6
20260504211833 27 248 11.3 25.7 0.00 0.00 0.00 52 1004.6
20260504211307 26 228 11.3 25.7 0.00 0.00 0.00 50 1004.8
20260504210801 27 217 6.4 19.3 0.00 0.00 0.00 50 1004.7
20260504210300 27 197 9.7 19.3 0.00 0.00 0.00 50 1004.7
20260504205835 27 245 8.0 20.9 0.00 0.00 0.00 51 1004.9
20260504205308 27 219 8.0 20.9 0.00 0.00 0.00 50 1005.0
20260504204802 27 216 8.0 19.3 0.00 0.00 0.00 51 1005.0
20260504204316 27 197 11.3 19.3 0.00 0.00 0.00 51 1005.0
20260504203810 27 221 8.0 20.9 0.00 0.00 0.00 51 1005.2
20260504203305 27 205 14.5 20.9 0.00 0.00 0.00 49 1005.2
20260504202820 27 229 8.0 17.7 0.00 0.00 0.00 50 1005.3
20260504202314 27 188 9.7 20.9 0.00 0.00 0.00 50 1005.3
20260504201810 27 219 8.0 22.5 0.00 0.00 0.00 50 1005.3
20260504201329 27 202 8.0 22.5 0.00 0.00 0.00 50 1005.3
20260504200803 27 184 6.4 22.5 0.00 0.00 0.00 53 1005.4
20260504200318 27 217 4.8 22.5 0.00 0.00 0.00 52 1005.5
20260504195812 27 219 8.0 19.3 0.00 0.00 0.00 50 1005.6
20260504195328 27 215 6.4 19.3 0.00 0.00 0.00 52 1005.5
20260504194801 26 209 6.4 24.1 0.00 0.00 0.00 52 1005.6
20260504194317 26 225 9.7 19.3 0.00 0.00 0.00 49 1005.8
20260504193811 27 226 9.7 19.3 0.00 0.00 0.00 51 1005.8
20260504193306 27 214 8.0 19.3 0.00 0.00 0.00 52 1006.0
20260504192804 27 201 6.4 14.5 0.00 0.00 0.00 50 1006.0
20260504192259 27 236 3.2 20.9 0.00 0.00 0.00 50 1006.1
20260504191814 27 219 6.4 20.9 0.00 0.00 0.00 50 1006.1
20260504191309 26 207 6.4 20.9 0.00 0.00 0.00 50 1006.1
20260504190803 26 170 12.9 20.9 0.00 0.00 0.00 50 1006.1
20260504190317 26 120 12.9 19.3 0.00 0.00 0.00 50 1006.1
20260504185812 26 223 4.8 22.5 0.00 0.00 0.00 52 1006.1
20260504185327 26 223 8.0 17.7 0.00 0.00 0.00 51 1006.2
20260504184804 26 240 9.7 17.7 0.00 0.00 0.00 52 1006.2
20260504184319 26 179 4.8 16.1 0.00 0.00 0.00 52 1006.3
20260504183814 26 207 8.0 19.3 0.00 0.00 0.00 51 1006.2
20260504183307 26 231 9.7 19.3 0.00 0.00 0.00 53 1006.2
20260504182803 26 219 6.4 24.1 0.00 0.00 0.00 52 1006.2
20260504182315 26 227 9.7 24.1 0.00 0.00 0.00 51 1006.3
20260504181808 26 240 8.0 22.5 0.00 0.00 0.00 51 1006.3
20260504181302 26 236 11.3 22.5 0.00 0.00 0.00 50 1006.2
20260504180815 26 232 8.0 17.7 0.00 0.00 0.00 51 1006.3
20260504180314 26 240 8.0 17.7 0.00 0.00 0.00 52 1006.3
20260504175807 26 203 8.0 19.3 0.00 0.00 0.00 55 1006.3
20260504175304 25 223 11.3 22.5 0.00 0.00 0.00 51 1006.3
20260504174837 25 127 9.7 22.5 0.00 0.00 0.00 50 1006.4
20260504174310 25 198 11.3 20.9 0.00 0.00 0.00 51 1006.3
20260504173805 25 230 12.9 20.9 0.00 0.00 0.00 51 1006.2
20260504173300 25 223 11.3 22.5 0.00 0.00 0.00 54 1006.3
20260504172815 25 185 11.3 22.5 0.00 0.00 0.00 52 1006.2
20260504172309 25 209 9.7 20.9 0.00 0.00 0.00 52 1006.3
20260504171808 25 212 8.0 27.4 0.00 0.00 0.00 53 1006.3
20260504171304 25 216 9.7 29.0 0.00 0.00 0.00 52 1006.3
20260504170818 25 233 14.5 29.0 0.00 0.00 0.00 52 1006.4
20260504170332 25 203 9.7 25.7 0.00 0.00 0.00 53 1006.3
20260504160326 23 184 11.3 22.5 0.00 0.00 0.00 56 1006.9
20260504150809 22 131 11.3 22.5 0.00 0.00 0.00 56 1007.1
20260504150304 22 217 9.7 22.5 0.00 0.00 0.00 57 1007.1
20260504141314 21 231 9.7 24.1 0.00 0.00 0.00 56 1007.8
20260504140808 21 217 6.4 17.7 0.00 0.00 0.00 57 1007.9
20260504140323 21 215 9.7 19.3 0.00 0.00 0.00 57 1007.9
20260504130800 18 184 11.3 20.9 0.00 0.00 0.00 61 1008.3
20260504130300 18 141 9.7 17.7 0.00 0.00 0.00 61 1008.3
20260504120300 16 166 4.8 16.1 0.00 0.00 0.00 67 1008.4
20260504110306 16 138 3.2 12.9 0.00 0.00 0.00 65 1008.7
20260504100310 17 219 1.6 9.7 0.00 0.00 0.00 62 1009.1
20260504081823 17 159 4.8 16.1 0.00 0.00 0.00 60 1009.3
20260504081316 17 218 3.2 16.1 0.00 0.00 0.00 61 1009.4
20260504080811 17 228 3.2 11.3 0.00 0.00 0.00 61 1009.4
20260504080306 18 207 4.8 11.3 0.00 0.00 0.00 60 1009.5